Hourly Weather Allende

Today, 18 May, Tuesday

Time Temperature Precipitation Wind Pressure Humidity
00:00 +26°C° 0 mm 3 mps 716 mmHg 68%
01:00 +26°C° 0 mm 3 mps 716 mmHg 67%
02:00 +25°C° 0 mm 3 mps 716 mmHg 66%
03:00 +25°C° 0 mm 3 mps 717 mmHg 67%
04:00 +25°C° 0 mm 3 mps 717 mmHg 68%
05:00 +24°C° 0 mm 3 mps 718 mmHg 68%
06:00 +26°C° 0 mm 2 mps 718 mmHg 64%
07:00 +28°C° 0 mm 2 mps 719 mmHg 59%
08:00 +30°C° 0 mm 2 mps 719 mmHg 54%
09:00 +31°C° 0 mm 2 mps 719 mmHg 50%
10:00 +34°C° 0 mm 2 mps 719 mmHg 46%
11:00 +35°C° 0 mm 2 mps 718 mmHg 42%
12:00 +36°C° 0 mm 2 mps 718 mmHg 38%
13:00 +37°C° 0 mm 3 mps 717 mmHg 35%
14:00 +38°C° 0 mm 3 mps 716 mmHg 31%
15:00 +37°C° 0 mm 2 mps 716 mmHg 32%
16:00 +37°C° 0 mm 2 mps 716 mmHg 34%
17:00 +36°C° 0 mm 2 mps 715 mmHg 35%
18:00 +32°C° 1 mm 2 mps 716 mmHg 49%
19:00 +29°C° 1 mm 2 mps 716 mmHg 63%
20:00 +26°C° 1 mm 2 mps 716 mmHg 77%
21:00 +26°C° 0.2 mm 2 mps 716 mmHg 77%
22:00 +25°C° 0.2 mm 2 mps 717 mmHg 78%
23:00 +25°C° 0.2 mm 3 mps 717 mmHg 78%

Tomorrow, 19 May, Wednesday

Time Temperature Precipitation Wind Pressure Humidity
00:00 +25°C° 0 mm 2 mps 716 mmHg 78%
01:00 +25°C° 0 mm 2 mps 716 mmHg 77%
02:00 +25°C° 0 mm 2 mps 715 mmHg 77%
03:00 +24°C° 0 mm 2 mps 716 mmHg 78%
04:00 +24°C° 0 mm 2 mps 716 mmHg 78%
05:00 +23°C° 0 mm 2 mps 716 mmHg 79%
06:00 +25°C° 0 mm 2 mps 717 mmHg 71%
07:00 +27°C° 0 mm 2 mps 717 mmHg 62%
08:00 +29°C° 0 mm 2 mps 717 mmHg 53%
09:00 +31°C° 0 mm 2 mps 717 mmHg 49%
10:00 +33°C° 0 mm 3 mps 717 mmHg 45%
11:00 +35°C° 0 mm 3 mps 717 mmHg 41%
12:00 +35°C° 0.1 mm 4 mps 717 mmHg 41%
13:00 +35°C° 0.1 mm 4 mps 716 mmHg 40%
14:00 +36°C° 0.1 mm 5 mps 716 mmHg 40%
15:00 +32°C° 2 mm 4 mps 717 mmHg 54%
16:00 +27°C° 2 mm 3 mps 718 mmHg 68%
17:00 +23°C° 2 mm 2 mps 719 mmHg 82%
18:00 +23°C° 0.1 mm 1 mps 719 mmHg 82%
19:00 +23°C° 0.1 mm 1 mps 720 mmHg 83%
20:00 +23°C° 0.1 mm 1 mps 720 mmHg 83%
21:00 +22°C° 0 mm 1 mps 720 mmHg 82%
22:00 +22°C° 0 mm 1 mps 719 mmHg 80%
23:00 +22°C° 0 mm 1 mps 719 mmHg 78%

Day after tomorrow, 20 May, Thursday

Time Temperature Precipitation Wind Pressure Humidity
00:00 +22°C° 0 mm 1 mps 719 mmHg 79%
01:00 +21°C° 0 mm 1 mps 719 mmHg 80%
02:00 +21°C° 0 mm 1 mps 719 mmHg 81%
03:00 +21°C° 0 mm 1 mps 719 mmHg 79%
04:00 +21°C° 0 mm 1 mps 719 mmHg 77%
05:00 +21°C° 0 mm 1 mps 719 mmHg 75%
06:00 +23°C° 0 mm 1 mps 720 mmHg 67%
07:00 +25°C° 0 mm 1 mps 720 mmHg 59%
08:00 +28°C° 0 mm 1 mps 720 mmHg 51%
09:00 +29°C° 0 mm 2 mps 720 mmHg 47%
10:00 +31°C° 0 mm 2 mps 720 mmHg 43%
11:00 +34°C° 0 mm 3 mps 720 mmHg 39%
12:00 +34°C° 0 mm 3 mps 720 mmHg 39%
13:00 +34°C° 0 mm 3 mps 720 mmHg 39%
14:00 +34°C° 0 mm 3 mps 720 mmHg 39%
15:00 +34°C° 0.1 mm 4 mps 720 mmHg 42%
16:00 +33°C° 0.1 mm 4 mps 720 mmHg 46%
17:00 +32°C° 0.1 mm 4 mps 720 mmHg 50%
18:00 +29°C° 0.5 mm 3 mps 720 mmHg 63%
19:00 +27°C° 0.5 mm 2 mps 721 mmHg 76%
20:00 +25°C° 0.5 mm 1 mps 721 mmHg 90%
21:00 +24°C° 0.1 mm 1 mps 721 mmHg 90%
22:00 +24°C° 0.1 mm 1 mps 722 mmHg 91%
23:00 +24°C° 0.1 mm 1 mps 722 mmHg 91%

21 May, Friday

Time Temperature Precipitation Wind Pressure Humidity
00:00 +24°C° 0 mm 1 mps 721 mmHg 90%
01:00 +23°C° 0 mm 1 mps 721 mmHg 89%
02:00 +23°C° 0 mm 1 mps 721 mmHg 88%
03:00 +23°C° 0 mm 1 mps 721 mmHg 87%
04:00 +23°C° 0 mm 1 mps 721 mmHg 86%
05:00 +23°C° 0 mm 1 mps 721 mmHg 84%
06:00 +24°C° 0 mm 2 mps 722 mmHg 79%
07:00 +26°C° 0 mm 2 mps 723 mmHg 74%
08:00 +27°C° 0 mm 2 mps 723 mmHg 69%
09:00 +29°C° 0 mm 3 mps 723 mmHg 64%
10:00 +30°C° 0 mm 3 mps 723 mmHg 59%
11:00 +31°C° 0 mm 3 mps 723 mmHg 54%
12:00 +33°C° 0.1 mm 3 mps 723 mmHg 51%
13:00 +33°C° 0.1 mm 4 mps 722 mmHg 48%
14:00 +34°C° 0.1 mm 4 mps 722 mmHg 45%
15:00 +33°C° 0.1 mm 4 mps 722 mmHg 47%
16:00 +33°C° 0.1 mm 3 mps 722 mmHg 48%
17:00 +31°C° 0.1 mm 3 mps 722 mmHg 50%
18:00 +29°C° 0.3 mm 3 mps 722 mmHg 59%
19:00 +27°C° 0.3 mm 3 mps 723 mmHg 67%
20:00 +26°C° 0.3 mm 2 mps 723 mmHg 76%
21:00 +25°C° 0.4 mm 2 mps 724 mmHg 81%
22:00 +25°C° 0.4 mm 2 mps 724 mmHg 85%
23:00 +24°C° 0.4 mm 1 mps 724 mmHg 90%

22 May, Saturday

Time Temperature Precipitation Wind Pressure Humidity
00:00 +24°C° 0.1 mm 1 mps 724 mmHg 90%
01:00 +24°C° 0.1 mm 1 mps 723 mmHg 90%
02:00 +23°C° 0.1 mm 1 mps 723 mmHg 90%
03:00 +23°C° 0 mm 1 mps 723 mmHg 90%
04:00 +23°C° 0 mm 1 mps 723 mmHg 89%
05:00 +23°C° 0 mm 1 mps 723 mmHg 89%
06:00 +24°C° 0 mm 1 mps 724 mmHg 83%
07:00 +26°C° 0 mm 1 mps 724 mmHg 76%
08:00 +28°C° 0 mm 2 mps 724 mmHg 70%
09:00 +29°C° 0.2 mm 2 mps 724 mmHg 65%
10:00 +30°C° 0.2 mm 2 mps 724 mmHg 60%
11:00 +31°C° 0.2 mm 3 mps 724 mmHg 56%
12:00 +30°C° 0.8 mm 2 mps 723 mmHg 61%
13:00 +29°C° 0.8 mm 2 mps 723 mmHg 67%
14:00 +28°C° 0.8 mm 2 mps 723 mmHg 73%
15:00 +27°C° 3.4 mm 2 mps 722 mmHg 79%
16:00 +26°C° 3.4 mm 2 mps 722 mmHg 86%
17:00 +25°C° 3.4 mm 2 mps 722 mmHg 93%
18:00 +25°C° 5.6 mm 2 mps 722 mmHg 92%
19:00 +24°C° 5.6 mm 1 mps 723 mmHg 91%
20:00 +24°C° 5.6 mm 1 mps 724 mmHg 90%
21:00 +24°C° 0.6 mm 1 mps 724 mmHg 90%
22:00 +24°C° 0.6 mm 1 mps 724 mmHg 90%
23:00 +24°C° 0.6 mm 1 mps 724 mmHg 90%

23 May, Sunday

Time Temperature Precipitation Wind Pressure Humidity
00:00 +24°C° 0.2 mm 1 mps 723 mmHg 90%
01:00 +24°C° 0.2 mm 1 mps 722 mmHg 91%
02:00 +21°C° 0.2 mm 0 mps 722 mmHg 92%
03:00 +23°C° 0 mm 1 mps 722 mmHg 92%
04:00 +23°C° 0 mm 1 mps 722 mmHg 93%
05:00 +23°C° 0 mm 1 mps 722 mmHg 93%
06:00 +24°C° 0 mm 1 mps 723 mmHg 89%
07:00 +25°C° 0 mm 1 mps 723 mmHg 85%
08:00 +26°C° 0 mm 1 mps 723 mmHg 80%
09:00 +27°C° 0.3 mm 1 mps 723 mmHg 77%
10:00 +28°C° 0.3 mm 2 mps 723 mmHg 74%
11:00 +29°C° 0.3 mm 2 mps 723 mmHg 70%
12:00 +29°C° 0.8 mm 2 mps 723 mmHg 71%
13:00 +28°C° 0.8 mm 2 mps 723 mmHg 72%
14:00 +28°C° 0.8 mm 2 mps 722 mmHg 73%
15:00 +28°C° 0.5 mm 2 mps 722 mmHg 74%
16:00 +28°C° 0.5 mm 2 mps 722 mmHg 76%
17:00 +28°C° 0.5 mm 2 mps 721 mmHg 77%
18:00 +27°C° 0.2 mm 2 mps 722 mmHg 80%
19:00 +26°C° 0.2 mm 2 mps 722 mmHg 82%
20:00 +25°C° 0.2 mm 2 mps 722 mmHg 85%
21:00 +25°C° 0.4 mm 2 mps 722 mmHg 85%
22:00 +25°C° 0.4 mm 1 mps 723 mmHg 86%
23:00 +25°C° 0.4 mm 1 mps 723 mmHg 87%
Show more